[[{"header":{"parameterUnit":"m.s-1","parameterCategory":1,"la1":30.2992,"la2":30.254,"lo1":-89.0895,"lo2":-89.0443,"dy":0.0025,"dx":0.0025,"nx":19,"ny":19,"refTime":"2026-05-13T09:00:00:Z","depth":0,"parameterNumber":2,"parameterNumberName":"U-component_of_WINDS"},"data":[0,0,0,-1.4106,-1.4105,-1.4061,-1.4061,-1.3997,-1.3996,0,0,0,0,0,0,0,0,0,0,0,-1.4117,-1.4116,-1.4106,-1.4105,-1.4061,-1.4061,-1.3997,-1.3996,0,0,0,0,0,0,0,0,0,0,0,-1.4117,-1.4116,-1.4116,-1.4104,-1.4061,-1.4061,-1.3997,-1.4032,0,0,0,0,0,0,0,0,0,0,-1.4076,-1.4085,-1.4116,-1.4116,-1.4104,-1.4061,-1.4061,-1.4034,-1.403,-1.4014,0,-1.4002,0,-1.3998,-1.3992,-1.3991,0,0,0,-1.4106,-1.4088,-1.4078,-1.4116,-1.4104,-1.4061,-1.4081,-1.4032,-1.4027,-1.4009,-1.4001,-1.3999,-1.3997,-1.3991,-1.3991,-1.39,-1.39,0,0,-1.4108,-1.4107,-1.4081,-1.4075,-1.4085,-1.4082,-1.408,-1.4029,-1.402,-1.4001,-1.3997,-1.3996,-1.3991,-1.399,-1.39,-1.39,0,0,0,-1.4114,-1.4109,-1.41,-1.4078,-1.4071,-1.4081,-1.4078,-1.4022,-1.4019,-1.3997,-1.3995,-1.399,-1.399,-1.3901,-1.39,-1.3876,0,0,0,-1.4116,-1.4113,-1.4101,-1.41,-1.4072,-1.4046,-1.4072,-1.4023,-1.4017,-1.3996,-1.399,-1.3989,-1.3902,-1.3901,-1.3878,-1.3864,0,0,0,-1.412,-1.4113,-1.4106,-1.4101,-1.4082,-1.4047,-1.4042,-1.4022,-1.4016,-1.3991,-1.3989,-1.3902,-1.3901,-1.388,-1.3867,-1.3839,0,0,0,-1.4124,-1.4086,-1.4106,-1.4062,-1.4082,-1.4034,-1.4042,-1.4006,-1.3982,-1.399,-1.3901,-1.39,-1.388,-1.3869,-1.3841,-1.3814,-1.3804,0,0,-1.4075,-1.408,-1.4054,-1.4071,-1.4019,-1.404,-1.3983,-1.3962,-1.3959,-1.3919,-1.3917,-1.3877,-1.3867,-1.3839,-1.3747,-1.3739,0,0,0,-1.4038,-1.402,-1.4006,-1.3984,-1.3967,-1.395,-1.3937,-1.3928,-1.3895,-1.3939,-1.386,-1.3854,-1.3838,-1.3825,-1.3818,-1.3802,-1.3895,-1.3895,-1.3895,-1.3968,-1.3967,-1.3924,-1.3917,-1.3895,-1.3881,-1.3862,-1.3848,-1.3854,-1.3835,-1.3822,-1.3767,-1.3752,-1.3747,-1.3731,-1.381,-1.381,-1.381,-1.3809,-1.3895,-1.3867,-1.3875,-1.3836,-1.3834,-1.38,-1.3784,-1.3789,-1.3755,-1.3777,-1.3762,-1.3785,-1.3738,-1.3723,-1.3808,-1.3808,-1.3808,-1.3808,-1.3808,-1.3847,-1.3834,-1.3825,-1.3791,-1.3764,-1.3758,-1.3725,-1.3725,-1.3724,-1.371,-1.3695,-1.3695,-1.3694,-1.3703,-1.3703,-1.3703,-1.3702,-1.3702,-1.3702,-1.3801,-1.3792,-1.3765,-1.3742,-1.3727,-1.3706,-1.369,-1.3673,-1.3655,-1.3657,-1.3656,-1.3662,-1.3734,-1.3751,-1.3699,-1.37,-1.37,-1.37,-1.3701,-1.3725,-1.3742,-1.37,-1.3685,-1.3656,-1.3628,-1.3628,-1.3594,-1.3581,-1.3563,-1.3572,-1.3626,-1.363,-1.3636,-1.365,-1.3574,-1.3574,-1.3574,-1.3574,-1.3683,-1.3686,-1.3642,-1.3617,-1.3591,-1.3587,-1.3536,-1.3522,-1.3509,-1.35,-1.3511,-1.353,-1.3536,-1.3536,-1.3544,-1.3557,-1.3459,-1.3459,-1.3459,-1.3635,-1.3635,-1.3594,-1.3584,-1.3561,-1.354,-1.3491,-1.3459,-1.3448,-1.3454,-1.3491,-1.3496,-1.3527,-1.3538,-1.3544,-1.3556,-1.358,0,0]},{"header":{"parameterUnit":"m.s-1","parameterCategory":1,"la1":30.2992,"la2":30.254,"lo1":-89.0895,"lo2":-89.0443,"dy":0.0025,"dx":0.0025,"nx":19,"ny":19,"refTime":"2026-05-13T09:00:00:Z","depth":0,"parameterNumber":3,"parameterNumberName":"V-component_of_WINDS"},"data":[0,0,0,-3.2871,-3.2873,-3.3002,-3.3003,-3.3168,-3.3169,0,0,0,0,0,0,0,0,0,0,0,-3.2832,-3.2834,-3.287,-3.2874,-3.3002,-3.3003,-3.3168,-3.3169,0,0,0,0,0,0,0,0,0,0,0,-3.2832,-3.2833,-3.2835,-3.2874,-3.3002,-3.3003,-3.3167,-3.307,0,0,0,0,0,0,0,0,0,0,-3.2945,-3.2909,-3.2833,-3.2835,-3.2875,-3.3002,-3.3003,-3.3065,-3.3076,-3.311,0,-3.314,0,-3.3157,-3.318,-3.3181,0,0,0,-3.2873,-3.29,-3.2935,-3.2835,-3.2876,-3.3002,-3.2944,-3.3071,-3.3083,-3.3124,-3.3142,-3.3148,-3.316,-3.3182,-3.3182,-3.3381,-3.3382,0,0,-3.2866,-3.2855,-3.2927,-3.2943,-3.2923,-3.294,-3.2948,-3.3079,-3.3097,-3.3143,-3.3152,-3.3163,-3.3183,-3.3184,-3.338,-3.3381,0,0,0,-3.2846,-3.285,-3.2882,-3.2937,-3.296,-3.2944,-3.2953,-3.3092,-3.3103,-3.3154,-3.3165,-3.3184,-3.3186,-3.3379,-3.338,-3.3419,0,0,0,-3.2842,-3.2839,-3.2879,-3.2874,-3.2957,-3.3027,-3.2963,-3.3094,-3.3109,-3.3164,-3.3184,-3.3187,-3.3378,-3.338,-3.3416,-3.3439,0,0,0,-3.2824,-3.2836,-3.2855,-3.2873,-3.2928,-3.3025,-3.3044,-3.3097,-3.3116,-3.3181,-3.3188,-3.3377,-3.3379,-3.3413,-3.3435,-3.3492,0,0,0,-3.2802,-3.2885,-3.2856,-3.2953,-3.2927,-3.3048,-3.3043,-3.3134,-3.3194,-3.3184,-3.3378,-3.338,-3.3412,-3.3432,-3.3488,-3.3539,-3.3559,0,0,-3.2901,-3.2896,-3.2955,-3.2933,-3.3057,-3.3029,-3.3159,-3.3223,-3.3238,-3.3333,-3.3338,-3.3417,-3.3434,-3.3491,-3.3667,-3.3683,0,0,0,-3.2983,-3.3025,-3.306,-3.3119,-3.3171,-3.3219,-3.3265,-3.329,-3.3371,-3.3285,-3.3452,-3.3462,-3.3496,-3.3521,-3.3534,-3.3565,-3.3391,-3.339,-3.339,-3.3108,-3.3125,-3.3224,-3.3258,-3.3314,-3.3363,-3.3411,-3.3453,-3.345,-3.349,-3.3519,-3.3624,-3.3653,-3.3663,-3.3695,-3.3545,-3.3545,-3.3545,-3.3545,-3.3258,-3.3322,-3.332,-3.3416,-3.3434,-3.3515,-3.3566,-3.3562,-3.3641,-3.3602,-3.3633,-3.3592,-3.3679,-3.3708,-3.3548,-3.3548,-3.3547,-3.3547,-3.3547,-3.3344,-3.3378,-3.3407,-3.3496,-3.3563,-3.3593,-3.367,-3.3682,-3.3694,-3.3724,-3.3758,-3.3758,-3.3761,-3.3739,-3.3739,-3.374,-3.374,-3.374,-3.3741,-3.3422,-3.3455,-3.3519,-3.3584,-3.3625,-3.3681,-3.3733,-3.3773,-3.3822,-3.3825,-3.3825,-3.3822,-3.3683,-3.365,-3.3746,-3.3745,-3.3745,-3.3744,-3.3744,-3.3572,-3.3541,-3.3639,-3.3681,-3.3761,-3.3829,-3.3844,-3.3927,-3.3962,-3.4,-3.3991,-3.3885,-3.3882,-3.3871,-3.3844,-3.3985,-3.3985,-3.3985,-3.3985,-3.3647,-3.3646,-3.3752,-3.3819,-3.3885,-3.391,-3.4023,-3.4065,-3.4103,-3.4127,-3.4108,-3.4072,-3.406,-3.4063,-3.4049,-3.4024,-3.4207,-3.4208,-3.4208,-3.3742,-3.3749,-3.3843,-3.3881,-3.3945,-3.4001,-3.4109,-3.4186,-3.4222,-3.4217,-3.4146,-3.4137,-3.4079,-3.4059,-3.4053,-3.403,-3.3985,0,0]}]]